Regional Weather Roundup
Issued by NWS Sterling, VA

Home | Current Version | Previous Version | Text Only | Print | Product List | Glossary On
Versions: 1 2 3 4 5 6 7 8 9 10 11 12 13 14 15 16 17 18 19 20 21 22 23 24 25 26 27 28 29 30 31 32 33 34 35 36 37 38 39 40 41 42 43 44 45 46 47 48 49 50
000
ASUS41 KLWX 210711
RWRLWX

REGIONAL WEATHER ROUNDUP
NATIONAL WEATHER SERVICE BALTIMORE MD/WASHINGTON DC
300 AM EDT FRI JUL 21 2017

Note: "FAIR" indicates few or no clouds below 12,000 feet
with no significant weather and/or obstructions to visibility.
 TC=TEMPERATURE CELSIUS

 * =Non NWS site. Station does not report precipitation (e.g. rain,
    snow, etc.), thunder, or fog.

DCZ001-MDZ009-015-VAZ040>042-051-053>054-210800-
WASHINGTON METRO

CITY           SKY/WX    TMP DP  RH WIND       PRES   REMARKS
WASHINGTON NAT CLOUDY    85  69  58 NW7       29.92F
DULLES         CLOUDY    76  68  76 CALM      29.94F
ANDREWS AFB    CLOUDY    82  69  63 W5        29.92F
FT BELVOIR     CLOUDY    76  71  82 CALM      29.92F
QUANTICO       CLOUDY    79  76  90 NW5       29.93F
COLLEGE PARK*  CLEAR     77  73  86 CALM      29.91F
LEESBURG*      CLOUDY    79  72  78 W3        29.95F
MANASSAS*      CLOUDY    74  72  93 CALM      29.94F
GAITHERSBURG*  CLEAR     75  70  84 CALM      29.95F

$$

MDZ006>007-011-014-210800-
BALTIMORE METRO

CITY           SKY/WX    TMP DP  RH WIND       PRES   REMARKS
BWI AIRPORT    PTCLDY    80  70  71 W5        29.91F
MD SCIENCE CTR   N/A     86  69  56 MISG      29.90F HX  90
MARTIN STATE   PTCLDY    84  72  65 SW3       29.91F
ANNAPOLIS      CLOUDY    80  79  96 CALM      29.90F
FORT MEADE*    PTCLDY    72  70  94 CALM      29.94F

$$

MDZ012-015-019>023-210800-
MARYLAND EASTERN SHORE

CITY           SKY/WX    TMP DP  RH WIND       PRES   REMARKS
OCEAN CITY     PTCLDY    81  75  82 SW10      29.92F
SALISBURY      NOT AVBL
BAY BRIDGE AP* CLOUDY    82  75  78 SW5       29.91F
CAMBRIDGE*     CLEAR     81  75  83 CALM      29.91F
EASTON*        PTCLDY    82  75  80 CALM      29.95F

$$

MDZ017>025-210800-
SOUTHERN MARYLAND

CITY           SKY/WX    TMP DP  RH WIND       PRES   REMARKS
PATUXENT RIVER CLEAR     80  74  81 SW9       29.91F
ST INIGOES     CLEAR     82  74  76 SW12      29.91F
LEONARDTOWN*   CLEAR    N/A N/A N/A W3        29.94F

$$

MDZ003>005-210800-
NORTH CENTRAL MARYLAND

CITY           SKY/WX    TMP DP  RH WIND       PRES   REMARKS
FREDERICK*     PTCLDY    77  72  83 S5        29.96F
HAGERSTOWN APT CLOUDY    82  69  64 W9        29.95F
WESTMINSTER*   MOCLDY    81  70  69 W6        29.95F

$$

MDZ501>502-210800-
WESTERN MARYLAND

CITY           SKY/WX    TMP DP  RH WIND       PRES   REMARKS
OAKLAND*       PTCLDY    68  66  94 W6        30.08S
CUMBERLAND*    PTCLDY    75  70  83 CALM      30.01F

$$

VAZ025>031-210800-
SHENANDOAH VALLEY

CITY           SKY/WX    TMP DP  RH WIND       PRES   REMARKS
WINCHESTER*    PTCLDY    72  64  78 S3        29.96F
FRONT ROYAL*   PTCLDY    77  66  69 SW5       29.96F
LURAY*         CLOUDY    73  68  83 SE3       29.99F
NEW MARKET*    CLOUDY    69  66  90 CALM      29.99S
STAUNTON*      CLOUDY    71  68  90 CALM      30.03F
WAYNESBORO*    PTCLDY    70  69  94 CALM      30.03F

$$

WVZ021-048>050-054>055-210800-
EASTERN WEST VIRGINIA PANHANDLE

CITY           SKY/WX    TMP DP  RH WIND       PRES   REMARKS
MARTINSBURG    MOCLDY    78  67  68 S6        29.94F
PETERSBURG*    PTCLDY    73  69  86 CALM      30.00F

$$

VAZ036>039-050-210800-
CENTRAL FOOTHILLS

CITY           SKY/WX    TMP DP  RH WIND       PRES   REMARKS
CHARLOTTESVILL CLOUDY    76  70  82 CALM      29.96F
CULPEPER*      CLOUDY    72  72  99 CALM      29.95F
ORANGE*        CLOUDY    70  68  94 CALM      29.95F
GORDONSVILLE*  CLOUDY    72  70  94 CALM      29.95F
WARRENTON*     CLOUDY    72  68  87 CALM      29.94F FOG

$$

VAZ055>057-210800-
NORTH AND CENTRAL PIEDMONT

CITY           SKY/WX    TMP DP  RH WIND       PRES   REMARKS
FREDERICKSBRG* CLOUDY    76  74  92 CALM      29.93F
STAFFORD*      CLOUDY    72  72 100 CALM      29.97F FOG

$$

NCZ024-NYZ072-PAZ021-071-VAZ022-071-210800-
OTHER REGIONAL OBSERVATIONS

CITY           SKY/WX    TMP DP  RH WIND       PRES   REMARKS
NEW YORK CITY  CLOUDY    77  68  73 CALM      29.91F
PHILADELPHIA   MOCLDY    82  70  66 SW5       29.89F
PITTSBURGH     PTCLDY    74  72  93 SW7       29.98F
ROANOKE        PTCLDY    74  67  78 NW7       30.05F
RICHMOND       CLOUDY    78  71  79 S5        29.94F
RALEIGH        PTCLDY    78  72  81 SW7       29.99F

$$

ANZ530>537-210800-
MARINE OBSERVATIONS

STATION/POSITION TIME  TEMP    WIND        PRES
                       AIR SEA DIR/SP/G
                 (UTC) (F)     (DEG/KT/KT) (MB)
THOMAS PT LIGHT  0700   82 82  270/  6/  6   N/A
BALT KEY BRIDGE  0648          270/  9/ 10 1012.3F
COVE POINT       0648          270/ 12/ 15 1013.5F
LEWISETTA        0636      86  250/  8/  9 1013.4F
SOLOMONS ISLAND  0636      84  240/ 12/ 15   N/A
PINEY POINT      0648          240/  6/  8   N/A

$$




USA.gov is the U.S. government's official web portal to all federal, state and local government web resources and services.